Theta_e
325 326 325 324 324 324 324 324 324 324 324 324 323 321 320 316 313 314 315 314 314 313 313 313 312 311 310 309 308 308 308 308 308 309 308 307 306 305 304 304 305 305 306 306 307 307 307 307 307 307 307 307 307 307 307 307 306 306 306 305 305 305 304 304 303 302 302 301 300 300 300 299 299 298
324 324 324 324 324 324 325 324 324 324 324 324 322 319 318 316 313 313 313 313 313 312 312 312 311 309 309 310 309 308 308 309 309 309 309 308 306 305 305 305 305 306 307 307 308 308 308 307 307 308 309 309 309 309 310 310 310 310 309 309 308 308 307 307 306 305 304 302 301 301 300 300 299 299
322 324 324 324 324 324 325 324 324 324 324 324 322 318 315 314 313 312 312 312 311 311 312 312 310 310 310 310 310 309 308 309 309 309 309 308 307 306 305 305 305 307 308 308 309 309 309 308 309 310 311 311 311 312 312 312 312 312 312 312 312 311 310 310 309 308 306 304 303 302 301 300 299 299
322 323 324 324 324 323 324 323 323 324 324 323 322 319 315 314 315 313 311 311 311 311 311 311 310 311 310 310 310 309 309 309 309 309 309 309 308 307 306 305 306 307 308 309 309 310 310 309 309 310 311 312 312 312 312 313 313 313 313 313 313 313 312 312 312 311 309 307 305 303 302 301 300 299
322 322 322 323 324 324 324 323 322 323 324 323 322 320 317 318 320 316 311 311 311 310 311 311 310 311 311 310 309 309 309 309 309 309 309 309 309 309 308 307 306 307 308 308 309 310 310 310 310 311 311 312 312 312 312 313 313 313 313 313 313 313 313 313 313 312 312 310 308 305 303 301 300 299
323 322 322 323 323 323 324 323 323 324 324 324 322 320 319 320 321 318 313 312 312 311 311 311 311 311 311 310 309 309 309 310 310 310 310 310 310 309 310 309 308 308 308 308 308 309 311 311 311 311 312 312 312 312 313 313 313 313 313 313 313 313 313 313 313 313 313 312 310 308 305 302 301 299
323 323 322 322 322 323 323 323 324 324 324 323 321 320 319 319 318 317 315 314 313 311 311 312 312 311 311 310 310 311 311 311 311 311 311 311 311 311 310 310 311 310 309 309 309 311 312 312 312 312 312 312 312 313 313 313 313 313 313 313 313 313 313 312 312 312 312 312 312 311 308 304 301 299
323 322 322 322 323 323 323 323 324 324 324 323 320 320 320 319 317 316 315 315 314 312 312 312 312 311 311 311 311 312 312 312 312 312 313 313 313 313 312 311 312 312 311 311 312 313 313 313 313 313 313 313 313 313 313 313 313 313 313 313 313 313 313 312 312 312 312 312 312 311 310 306 302 299
323 323 323 323 323 324 323 323 323 324 324 323 320 320 320 318 316 315 315 315 315 314 313 312 312 311 311 312 312 312 312 312 312 312 313 313 313 314 313 313 313 313 312 312 313 313 313 313 313 313 313 313 313 313 313 313 313 313 313 313 313 313 312 312 311 312 312 312 311 311 311 308 304 299
323 324 325 324 324 324 324 323 323 323 324 323 321 320 319 317 315 314 315 316 316 315 314 313 313 312 312 312 312 313 313 312 313 312 313 313 313 314 314 314 314 313 313 313 313 313 313 313 313 313 313 313 313 314 313 313 313 313 313 313 313 313 312 312 312 311 311 311 311 311 311 310 306 300
322 323 324 325 325 324 324 324 324 323 323 322 321 321 319 316 314 313 315 316 316 316 315 314 314 314 313 313 313 313 313 313 313 312 313 313 313 314 314 314 314 314 314 313 313 313 313 313 313 313 313 313 314 314 314 314 314 313 313 314 314 313 313 312 312 311 311 311 311 311 311 311 308 302
322 322 322 323 324 324 324 324 323 323 323 322 321 321 319 316 314 314 315 317 317 316 316 316 315 315 315 314 313 313 313 313 313 313 313 313 314 314 314 314 315 314 314 314 314 313 313 313 313 313 313 313 314 314 315 315 314 314 314 315 315 314 314 313 313 312 311 311 311 311 311 311 309 304
322 321 321 321 323 324 325 324 323 323 323 322 321 320 319 317 316 314 314 316 317 316 317 317 317 316 316 316 315 314 314 314 314 314 314 314 315 315 314 314 314 314 314 314 314 314 314 313 313 313 313 314 314 315 315 315 315 314 315 315 315 314 314 314 313 312 312 311 311 311 311 311 310 305
321 321 321 321 322 323 324 324 323 323 322 321 321 320 319 318 316 315 315 316 317 316 317 317 318 318 318 317 316 316 316 316 316 316 316 316 316 316 316 315 315 315 315 315 315 315 314 314 314 314 314 314 315 315 315 315 315 315 315 315 315 315 314 314 314 313 312 311 310 310 310 311 310 306
320 320 320 320 320 321 321 322 322 322 322 322 321 320 319 319 317 316 317 317 318 317 317 317 318 318 318 318 317 317 317 317 317 316 316 316 316 316 316 316 316 315 315 315 315 315 315 315 315 314 314 315 315 315 316 315 315 315 315 315 315 315 314 314 314 313 311 311 310 310 310 310 309 305
319 319 320 320 320 320 320 320 320 321 321 321 321 321 320 320 319 319 318 318 318 318 318 318 318 318 318 318 317 318 318 317 317 317 316 316 316 316 316 316 316 316 315 315 315 315 315 315 315 315 315 315 316 316 316 316 316 316 316 316 315 315 314 314 313 312 311 310 310 310 310 310 307 302
319 319 320 320 319 319 319 319 319 319 319 319 320 321 321 321 320 319 319 319 319 319 318 318 318 318 318 318 318 318 318 317 317 317 317 317 316 316 316 316 316 316 316 316 316 316 316 316 316 316 316 316 316 316 316 316 316 316 316 316 316 315 314 314 313 312 311 310 310 309 309 308 306 301
319 319 319 319 318 317 317 318 318 318 317 317 317 319 320 320 320 319 319 319 318 319 318 318 318 319 318 318 318 318 318 318 318 318 318 318 318 318 318 317 317 317 317 317 317 317 317 317 317 317 316 316 316 316 316 316 316 316 316 316 316 315 315 313 312 312 311 310 310 309 309 308 305 301
320 319 319 318 318 318 317 317 316 316 317 317 317 317 318 318 319 318 318 318 318 318 317 317 317 317 317 317 317 316 316 315 315 316 316 315 315 315 315 315 316 317 317 318 318 318 318 318 318 317 316 317 317 317 317 316 315 315 315 315 315 315 314 314 313 312 311 310 310 309 308 308 305 301
320 320 320 319 319 319 319 318 317 316 316 317 317 317 317 317 317 316 316 316 316 315 315 314 314 314 314 314 314 313 313 313 313 314 314 314 314 314 313 313 313 314 314 315 317 318 318 317 317 317 316 317 317 317 316 316 315 315 315 315 314 314 314 314 313 312 311 311 310 309 308 307 304 300
321 321 320 320 319 319 320 319 318 317 317 318 317 316 316 315 315 315 315 315 315 315 315 315 314 314 314 314 314 315 315 315 316 316 316 316 316 316 316 315 315 314 314 314 315 316 316 316 317 317 317 318 318 317 316 316 315 315 315 315 314 314 314 313 312 311 311 310 309 308 306 305 303 299
320 320 320 320 319 319 319 319 318 318 317 317 317 317 316 316 316 316 316 316 316 316 316 316 316 317 317 317 317 317 317 318 318 318 317 316 314 314 315 315 316 315 315 315 316 316 316 315 316 316 317 317 317 317 316 315 315 315 315 315 315 314 314 313 311 310 310 309 308 306 304 303 301 299
319 319 319 319 318 317 317 316 317 317 317 316 316 315 315 314 314 313 313 312 312 312 311 312 312 312 313 313 313 313 312 312 312 311 310 308 307 308 309 311 313 314 313 312 315 316 315 315 316 317 317 317 316 316 315 314 315 315 314 314 314 314 314 312 310 309 309 308 306 304 302 301 300 299
316 316 316 316 315 315 314 314 314 314 313 312 311 310 310 309 308 308 307 307 307 307 307 307 307 307 307 307 306 306 305 305 304 304 303 302 303 306 308 310 313 314 312 310 313 315 315 315 316 316 315 315 315 314 313 313 314 315 314 314 314 314 314 311 308 307 307 306 304 302 301 300 300 299
314 313 312 312 312 311 311 310 310 309 308 308 307 307 306 305 305 304 303 302 302 302 302 303 302 302 302 301 301 301 301 300 300 300 299 300 303 307 310 311 312 313 312 312 313 314 314 315 315 314 313 313 313 312 312 312 313 314 314 314 313 313 312 310 307 306 304 303 302 301 300 300 299 299
312 311 310 309 309 309 309 308 308 307 307 305 304 302 301 300 300 300 299 299 299 299 299 299 299 299 299 300 300 301 302 302 302 302 301 302 304 306 307 307 308 308 309 309 308 308 310 312 313 314 313 312 312 312 312 312 313 313 313 313 311 310 309 308 306 304 302 301 301 300 299 299 299 299
310 309 308 307 306 306 305 304 303 302 301 300 299 299 299 299 300 300 300 300 300 300 300 300 300 301 301 302 303 303 304 305 305 305 305 306 307 307 307 307 308 308 308 308 307 307 308 309 311 313 313 313 313 313 312 312 312 311 311 310 309 309 308 307 304 302 302 302 301 300 299 299 299 298
304 304 302 301 300 300 299 299 299 299 299 299 299 300 300 300 301 301 301 301 301 301 301 301 302 302 302 303 304 304 305 305 305 305 306 307 308 308 308 308 308 308 308 309 309 309 309 309 310 312 313 313 312 311 309 309 309 309 309 308 308 308 306 305 303 302 302 301 301 300 299 299 298 298
298 298 298 298 298 297 298 299 299 300 300 301 301 301 301 302 302 302 301 301 301 301 302 302 302 303 303 303 303 303 304 304 304 305 305 306 306 307 307 307 307 307 307 308 308 308 309 310 310 311 312 311 310 308 307 307 307 308 308 307 307 306 305 304 303 302 301 300 300 299 299 298 298 298
297 297 298 298 298 298 299 299 300 300 301 301 301 301 301 301 301 301 301 301 301 301 302 302 302 302 302 302 303 303 303 303 304 304 304 304 304 304 305 305 306 305 306 306 307 307 308 308 309 310 310 310 308 307 306 306 307 307 306 306 305 304 304 303 302 301 300 300 299 299 298 298 298 297
298 298 299 299 300 300 300 300 300 301 301 301 301 301 301 301 301 301 301 301 301 301 301 301 301 301 301 301 301 302 302 302 302 302 302 302 302 302 302 302 302 302 303 304 305 306 307 308 308 308 307 306 305 305 305 306 306 306 305 304 303 303 303 302 301 300 300 300 299 299 298 298 298 297
298 299 299 300 300 301 301 301 301 302 301 301 301 301 301 301 301 300 301 301 301 301 301 301 301 300 300 300 300 300 300 300 300 300 299 299 299 299 299 299 299 300 302 303 304 305 305 306 306 305 304 303 304 304 304 304 305 304 303 302 302 302 302 301 301 301 300 299 298 298 298 297 297 297
299 299 300 300 301 301 301 301 301 301 300 300 300 300 299 299 299 299 299 299 300 300 299 300 299 299 299 298 298 298 298 298 298 298 298 298 298 298 298 298 298 300 302 303 303 303 304 304 304 303 303 303 303 303 302 303 303 303 302 301 301 302 301 301 301 301 300 299 298 297 297 297 297 296
299 299 299 300 300 300 300 300 299 299 298 298 298 298 298 298 298 298 298 298 298 298 298 298 298 298 297 297 297 297 297 298 298 298 298 298 298 298 298 298 298 299 301 301 301 302 303 303 302 302 302 303 302 302 301 301 301 301 301 300 300 301 301 301 300 300 299 298 298 297 297 297 296 296
299 299 299 299 299 299 299 298 298 297 297 297 297 297 297 297 297 297 297 297 297 297 297 297 297 297 297 297 297 297 297 297 297 297 297 297 297 297 297 297 297 297 298 299 300 300 301 301 301 301 302 302 301 300 300 301 300 300 300 300 300 300 300 300 299 299 298 298 298 298 297 296 296 296
299 299 299 299 299 299 298 297 297 297 297 297 297 297 297 297 296 296 296 296 296 296 296 296 297 297 297 297 296 296 296 296 296 296 296 296 297 297 297 297 297 297 297 298 299 300 300 300 300 301 301 301 300 299 299 300 300 299 299 299 299 299 299 299 298 298 298 298 298 297 296 295 295 295
299 299 299 299 299 298 298 297 297 297 297 297 297 296 296 296 295 295 295 295 296 296 296 296 296 296 296 295 295 295 295 295 296 296 296 296 296 297 297 297 297 297 298 298 299 299 300 300 299 299 299 299 299 299 298 298 299 298 298 299 299 298 298 298 298 298 298 297 297 296 295 295 295 295
299 299 299 298 298 297 297 297 297 297 297 296 296 296 295 295 295 295 295 296 296 296 296 295 295 295 295 295 295 295 295 295 295 295 295 295 295 296 296 296 297 298 298 298 298 299 299 298 298 298 298 298 298 298 298 298 298 297 297 298 298 298 297 297 297 297 297 297 296 295 295 295 295 295
299 299 298 297 296 297 297 296 297 296 296 296 295 295 295 295 295 295 295 295 295 295 295 295 295 295 295 295 295 295 295 294 294 293 293 294 294 295 295 296 296 297 297 298 298 297 297 297 297 297 297 298 298 298 298 298 298 297 296 297 297 297 297 297 297 297 296 295 295 295 295 295 295 295
298 297 296 296 296 297 296 296 296 295 295 295 295 295 295 295 295 295 295 295 294 294 294 294 294 294 294 294 294 294 293 293 292 292 293 293 294 294 295 295 296 296 297 297 297 296 296 296 296 296 297 297 297 297 297 297 297 296 296 296 297 297 297 297 296 296 295 295 295 295 295 294 294 294
296 296 296 296 297 296 296 296 295 295 295 295 295 294 294 294 294 294 294 294 293 293 293 293 292 292 292 292 292 292 292 292 292 292 293 294 294 294 295 295 296 296 296 296 296 296 296 296 295 295 295 296 296 296 297 297 296 296 296 296 296 297 296 296 295 295 295 295 295 295 294 294 294 294
295 296 296 297 297 296 296 296 295 295 295 295 294 294 293 293 293 293 293 292 291 291 291 291 291 291 291 291 291 291 292 292 292 292 293 293 294 294 294 295 295 295 295 295 295 295 295 295 295 295 295 295 295 295 296 296 296 296 296 296 296 296 295 295 295 295 295 295 294 294 294 293 293 293
295 296 296 296 297 296 296 295 295 294 294 294 294 293 293 293 292 292 291 291 290 290 290 290 290 290 291 291 291 291 291 291 291 292 292 292 293 293 294 294 294 294 294 294 294 294 294 295 295 294 294 294 294 295 295 296 296 295 295 295 295 294 294 294 294 294 294 294 294 293 293 292 292 292
296 296 296 296 296 296 296 295 294 294 293 293 292 292 292 292 291 291 291 290 290 290 290 290 290 290 291 291 291 291 291 291 291 291 291 292 292 293 293 293 294 294 294 294 294 294 294 294 294 294 294 294 294 294 295 295 295 295 294 294 294 294 294 294 293 293 293 293 294 294 293 292 291 291
296 296 296 295 296 296 296 295 295 294 293 292 291 291 291 291 290 290 290 290 290 290 290 290 290 290 290 290 291 291 290 291 291 291 291 292 292 292 292 293 293 293 293 293 293 294 294 294 294 294 294 294 294 294 295 295 295 295 295 294 294 294 294 294 294 294 293 293 294 294 293 292 292 292
Wind_Speed
18 19 19 19 17 15 17 19 17 18 21 20 18 19 16 13 19 23 20 20 20 19 17 13 10 8 6 5 7 8 8 8 8 8 8 9 9 9 9 9 8 8 7 6 5 5 5 5 5 5 5 5 5 6 6 7 7 8 8 9 10 10 11 12 13 13 13 13 13 13 13 12 12 11
18 17 16 17 17 17 17 18 17 18 23 22 19 20 19 13 14 20 20 20 20 19 19 15 10 7 7 6 8 9 9 8 8 8 8 9 8 8 8 8 7 7 6 5 4 3 3 4 4 5 5 5 6 6 6 7 7 8 8 9 9 10 11 12 13 14 14 14 14 15 15 14 14 13
17 17 16 16 17 17 17 18 17 18 22 25 21 20 20 16 14 16 18 20 21 19 19 16 10 7 6 7 9 11 10 10 8 8 8 9 9 8 7 7 7 6 5 4 3 2 2 2 3 3 3 4 4 5 6 6 7 8 8 9 10 11 12 12 13 14 15 15 16 16 16 16 16 15
16 17 16 16 16 17 18 18 18 19 22 26 24 21 22 19 15 17 19 20 22 20 17 13 9 8 6 7 11 12 11 11 9 8 9 9 9 9 8 8 7 6 5 4 3 2 1 1 1 0 1 2 3 4 5 6 7 8 9 9 10 11 12 13 14 15 15 16 16 17 17 17 16 16
16 17 17 17 16 16 18 17 18 20 21 24 24 22 22 18 12 16 21 20 20 20 17 12 10 10 8 7 11 13 12 12 10 9 10 11 10 9 9 9 9 8 7 6 5 4 3 3 2 2 3 4 5 6 6 7 8 8 9 10 10 11 12 13 13 14 15 16 17 17 18 18 17 16
15 16 15 17 16 15 17 17 18 19 19 21 23 22 20 15 11 15 20 20 19 19 17 14 14 13 10 7 9 12 12 12 9 7 8 9 9 8 8 9 9 10 10 9 8 6 5 4 4 5 6 7 7 8 8 8 9 9 10 10 11 11 12 12 13 14 15 16 17 18 19 19 19 18
14 15 15 16 15 14 18 19 17 18 18 19 22 21 16 11 10 14 17 17 17 18 16 15 17 15 11 9 8 9 10 9 7 5 5 5 6 7 8 8 7 8 10 10 8 6 6 6 6 7 8 9 10 10 10 10 11 11 12 12 13 13 13 14 14 14 15 15 16 17 18 19 19 19
13 13 14 15 14 13 18 19 18 18 18 19 22 19 14 11 11 14 16 14 14 16 16 16 17 16 12 10 9 8 9 10 8 7 6 5 6 6 7 8 6 5 7 8 7 7 8 8 9 9 10 11 12 12 12 13 13 13 13 14 15 16 16 16 15 15 15 16 16 17 18 19 19 19
10 11 12 14 14 14 18 19 17 17 18 21 21 15 12 13 14 14 14 12 10 12 16 17 17 16 13 12 12 11 11 12 12 12 11 10 9 7 7 8 7 6 8 9 10 12 12 12 13 13 13 13 14 15 15 15 15 15 15 16 17 17 18 18 17 16 16 17 17 18 19 20 20 20
8 10 12 13 14 15 19 19 16 15 16 19 19 13 11 14 15 13 12 10 9 11 14 18 19 18 17 16 14 13 13 14 15 15 15 15 14 12 11 10 9 9 11 12 13 15 15 16 16 16 16 16 16 17 17 18 18 17 17 18 19 19 19 19 18 18 18 18 19 20 20 21 21 21
10 9 10 13 14 15 18 19 17 15 13 15 17 14 13 15 15 14 12 10 12 13 12 15 20 19 18 18 17 14 14 16 19 19 19 19 18 16 16 14 13 13 14 14 16 18 19 19 19 19 20 20 19 18 18 19 19 18 17 19 21 21 20 20 19 19 19 19 20 21 21 21 22 22
13 11 9 11 14 16 19 20 19 16 12 12 15 14 12 16 16 15 14 12 13 15 11 11 17 19 17 18 18 17 16 18 21 21 22 22 20 20 20 17 15 16 17 18 19 20 21 21 22 22 23 22 21 20 20 20 20 19 20 22 24 22 21 21 20 20 21 21 21 22 22 22 22 22
13 10 8 9 12 15 19 21 21 18 13 12 14 11 9 14 18 17 15 14 14 15 11 8 12 14 12 13 17 19 19 19 18 17 18 17 16 17 21 21 20 21 22 23 24 24 24 24 25 25 25 23 22 22 23 23 24 23 24 26 27 25 23 22 22 22 22 22 22 22 22 22 22 23
11 8 7 8 10 11 14 18 20 19 15 12 13 11 8 12 17 17 17 15 14 14 13 10 10 10 9 10 13 15 16 16 16 14 14 14 13 13 16 19 20 20 20 21 21 22 23 23 24 25 25 24 23 24 25 26 27 27 28 29 28 27 25 24 23 23 22 22 23 23 22 22 22 23
10 9 8 9 9 9 10 13 16 16 16 14 13 12 10 11 14 15 15 14 13 13 13 12 12 12 11 11 12 13 13 15 16 16 16 17 17 17 18 19 21 21 21 20 20 22 24 25 25 24 25 25 25 26 27 27 28 28 29 30 29 28 26 25 24 24 23 23 23 23 23 22 23 23
11 11 11 11 11 11 9 10 12 12 13 13 12 12 12 10 11 12 13 13 13 13 13 13 13 13 13 13 13 13 13 15 16 18 18 19 19 20 22 24 25 25 25 25 25 26 28 29 29 29 29 30 30 29 28 26 27 28 30 31 31 29 28 26 25 23 23 23 23 23 23 22 23 23
13 13 14 14 13 11 11 10 11 12 12 11 12 12 12 11 10 10 11 12 13 13 14 15 15 14 14 14 14 14 15 15 16 16 17 18 19 20 22 24 24 25 26 27 28 28 28 27 29 30 31 32 33 32 30 29 30 31 31 30 30 30 30 27 25 23 23 23 23 23 23 23 23 23
17 15 14 14 12 11 11 11 11 12 12 13 13 13 14 14 12 12 11 12 13 14 15 16 17 16 16 16 17 17 18 18 19 19 20 20 21 23 24 25 25 24 25 26 27 29 28 28 29 31 32 34 34 33 31 31 32 33 33 31 30 31 31 28 25 24 23 23 23 23 23 24 24 23
19 16 15 14 13 11 11 10 11 11 12 12 12 12 12 13 14 15 15 15 16 17 18 19 20 20 20 20 20 21 21 22 23 24 26 26 27 29 30 31 30 29 28 28 29 32 33 33 35 37 36 36 37 35 33 32 32 32 33 33 32 31 30 29 26 25 24 24 24 23 23 24 24 23
17 15 14 13 13 12 11 10 11 12 12 11 12 11 11 11 12 14 15 16 17 18 19 20 21 22 23 23 23 24 24 25 25 26 27 27 28 30 33 34 35 34 33 33 34 36 38 38 39 40 39 38 39 37 34 33 32 31 31 31 31 30 30 30 28 27 26 26 25 23 23 24 23 22
12 12 12 11 12 12 11 11 12 13 12 12 12 12 12 12 12 13 14 15 16 17 18 19 20 21 22 23 24 24 24 24 25 27 29 28 28 31 33 36 36 35 35 34 35 37 40 40 40 40 40 40 40 39 36 35 35 33 30 30 30 30 31 31 30 29 27 27 26 24 22 22 22 21
11 12 11 11 11 11 10 11 11 11 12 12 12 12 12 13 13 14 15 16 17 18 19 20 21 22 23 24 25 25 25 26 27 29 30 29 29 31 33 35 35 36 36 34 34 37 40 40 40 41 42 41 39 38 37 37 36 33 31 31 31 31 33 33 32 30 29 27 26 22 20 20 20 20
12 12 12 11 11 10 10 10 10 10 10 10 11 12 13 13 14 15 16 17 18 18 19 19 21 22 23 24 26 26 27 28 28 30 31 30 29 30 32 33 33 36 37 34 32 34 38 38 38 40 40 38 36 35 35 35 34 34 34 34 33 33 34 35 32 29 28 27 24 20 18 19 20 19
13 12 12 11 10 10 9 9 9 9 10 11 11 12 13 14 15 16 17 18 19 20 21 22 23 24 25 26 27 28 29 29 29 29 30 29 27 26 28 29 30 33 37 35 32 34 36 35 36 37 36 34 35 36 35 35 36 37 37 37 36 35 36 36 32 29 27 25 21 17 16 18 19 18
11 10 9 9 9 9 9 9 10 10 11 12 13 14 15 15 16 17 18 19 20 21 22 23 23 24 25 24 25 25 25 25 25 25 26 26 25 24 26 28 29 33 36 34 32 33 36 36 36 37 36 35 37 37 37 38 40 39 37 36 36 35 35 35 32 29 24 20 17 14 14 16 17 15
9 9 9 9 9 10 11 12 13 14 14 14 14 14 14 14 14 15 16 17 18 18 19 19 19 19 19 19 18 17 17 16 17 18 19 20 21 22 23 24 26 30 34 33 30 33 36 37 36 36 35 34 34 34 35 36 38 36 33 31 29 29 30 31 29 24 18 15 14 12 12 15 15 12
10 10 11 11 11 12 12 12 12 11 11 11 11 10 10 10 10 11 12 13 13 13 13 12 12 11 12 13 12 12 12 13 14 16 16 16 17 19 20 21 22 24 26 27 28 30 34 35 36 36 36 34 31 30 31 32 32 31 31 30 27 25 26 28 25 20 16 16 15 13 13 15 14 11
8 8 9 9 8 8 7 6 5 4 4 3 4 5 5 5 6 7 8 9 10 10 9 8 8 9 10 11 12 12 12 14 16 18 19 19 19 20 22 23 23 24 24 24 25 27 30 32 33 34 35 34 30 27 26 26 26 25 25 26 24 22 24 25 22 18 16 16 15 14 15 15 14 12
4 4 5 5 5 3 1 1 2 2 2 1 1 1 2 3 4 5 6 7 7 7 7 7 8 10 11 12 13 14 15 16 19 21 23 24 24 24 25 25 25 26 26 25 24 25 26 28 29 30 32 31 29 25 21 20 22 24 23 22 21 21 21 21 19 17 15 15 15 16 16 15 14 13
2 3 4 4 4 4 5 5 4 4 3 2 2 2 3 4 5 5 6 6 6 6 7 8 10 12 14 15 16 18 20 21 22 24 26 26 26 27 28 28 28 28 29 27 25 25 25 25 26 28 28 26 24 22 18 16 19 22 20 18 18 19 19 17 15 14 14 14 15 16 16 16 15 13
6 7 8 8 7 6 6 5 4 3 2 2 3 3 5 7 8 7 7 8 9 10 11 12 13 15 17 19 20 22 23 24 25 26 27 27 28 27 28 29 29 28 28 28 26 24 24 24 24 23 20 17 16 16 15 15 16 17 17 16 17 17 16 15 15 15 14 15 16 18 17 16 15 13
8 8 8 7 7 6 5 4 4 3 3 3 5 6 7 9 9 9 9 10 11 13 14 15 17 19 20 22 23 23 24 24 25 26 27 28 27 26 25 26 25 23 22 23 22 21 22 22 20 17 15 14 13 12 13 16 17 17 16 17 18 18 17 16 17 17 17 17 17 17 16 14 14 13
7 6 5 4 4 3 3 2 3 3 4 5 6 7 8 9 10 11 11 12 13 15 16 18 20 21 22 23 24 25 25 25 25 26 27 28 28 25 24 24 22 19 19 19 17 17 19 18 16 17 17 15 13 11 11 14 16 16 16 17 19 19 19 18 18 18 19 18 16 14 14 13 13 15
7 6 4 3 1 0 1 2 4 5 6 7 7 7 7 8 9 10 11 12 13 15 17 18 20 22 23 24 24 25 25 26 26 27 28 29 29 28 25 24 21 18 19 19 17 15 17 17 17 19 18 15 13 12 11 11 14 15 16 18 19 19 19 19 19 20 20 17 15 14 13 14 15 14
7 6 5 3 2 3 4 5 6 8 8 8 8 7 8 9 10 10 11 12 13 15 16 17 18 19 20 21 22 22 23 24 25 25 25 25 25 23 21 21 20 18 18 19 18 17 17 18 19 19 18 15 13 12 10 10 13 16 17 17 17 18 20 19 19 19 18 16 15 15 15 14 13 10
5 4 3 3 3 4 6 6 7 8 8 7 8 8 8 10 11 11 12 13 14 15 16 16 16 16 17 18 19 19 21 22 22 22 22 21 21 20 18 17 17 16 16 16 15 15 17 18 18 17 16 15 13 11 11 11 14 16 16 13 13 17 19 18 16 15 14 13 14 15 13 10 9 7
2 2 1 2 3 4 6 7 7 7 7 7 8 9 10 11 12 13 14 14 14 14 14 15 15 15 16 17 18 18 19 19 19 19 19 19 19 19 18 16 15 15 14 13 12 13 15 15 14 13 13 13 13 13 13 14 15 16 15 13 14 17 17 15 14 13 12 13 13 8 6 8 5 3
1 1 3 4 4 5 6 7 7 7 8 7 8 8 10 11 12 13 13 13 13 13 13 14 14 14 15 15 16 17 17 17 17 17 18 19 19 19 18 17 14 11 12 12 11 11 12 11 10 9 9 10 11 12 12 13 14 14 13 13 14 15 14 12 12 11 12 11 6 6 8 6 4 3
2 3 4 4 4 5 6 6 7 9 10 9 8 8 9 10 11 12 12 12 12 12 12 13 13 13 14 14 15 17 18 18 18 19 19 20 20 20 18 17 13 10 9 8 7 6 6 6 5 6 7 7 7 8 8 9 11 12 13 14 14 14 12 10 10 10 8 6 8 8 6 5 5 6
5 5 4 3 5 5 5 5 6 8 9 8 7 8 10 11 11 11 11 12 12 12 13 13 14 15 16 17 17 19 20 20 19 19 19 19 18 17 15 12 9 6 4 2 3 4 4 2 1 1 2 2 2 2 3 5 8 11 12 12 13 12 10 9 8 7 7 8 7 6 5 4 4 5
6 5 2 4 4 3 3 4 5 6 7 6 7 9 10 10 10 12 12 13 14 14 15 17 18 18 19 20 20 20 19 18 17 16 15 14 14 13 11 9 6 3 2 1 0 0 1 2 2 3 3 2 1 2 3 3 6 8 8 8 9 9 8 7 7 9 8 6 5 5 5 5 6 6
3 1 3 5 4 3 3 4 5 6 6 6 7 9 10 11 11 13 14 15 16 18 19 20 20 20 20 20 19 18 17 16 16 15 13 12 11 10 9 7 5 3 3 2 2 2 3 4 5 5 4 3 2 3 5 5 5 6 5 5 6 6 7 9 10 9 6 5 5 5 4 5 6 7
1 3 5 5 5 5 5 6 7 7 8 8 9 10 11 12 12 13 14 16 18 20 21 21 20 20 20 20 19 18 16 16 15 15 14 13 11 10 8 7 5 4 4 4 4 4 4 5 6 6 5 3 2 3 5 6 6 5 5 5 6 8 9 9 8 6 5 4 4 3 2 1 1 2
3 5 7 8 8 8 8 8 8 8 8 9 10 10 10 10 12 14 14 15 17 18 19 19 19 18 19 20 19 18 17 17 16 16 15 13 12 10 9 8 6 4 4 5 4 4 4 4 4 4 2 2 2 2 4 6 8 7 7 8 9 9 9 8 7 7 8 7 6 6 5 5 5 4
6 8 9 9 9 9 9 8 8 8 9 9 10 10 9 9 11 12 12 13 14 15 16 17 17 17 18 19 19 19 19 19 18 17 16 14 13 11 10 10 8 6 5 5 4 4 4 4 3 2 2 2 2 3 5 7 8 7 7 7 8 8 8 8 8 8 8 6 4 5 6 6 6 5
Wind_Direction
191 197 200 199 201 198 192 194 192 186 182 174 176 192 197 181 167 168 179 184 185 196 203 199 208 232 241 212 201 199 190 187 181 170 165 167 167 163 158 151 144 137 130 125 120 113 109 102 95 90 81 74 68 62 58 54 50 46 41 37 34 30 27 23 20 17 15 13 11 8 4 -0 355 350
185 191 196 198 201 199 193 192 191 185 181 177 176 185 196 203 181 172 178 184 187 194 201 211 230 229 226 235 223 205 196 194 189 180 175 176 176 175 172 166 158 152 148 142 135 128 123 113 99 89 81 72 65 58 52 47 42 39 35 30 27 23 20 18 15 11 9 7 5 3 1 359 354 350
190 192 194 197 197 197 196 191 189 187 181 179 179 182 190 197 194 184 177 179 189 199 201 209 234 239 225 231 221 206 201 199 196 194 189 185 186 189 188 185 179 173 171 169 160 157 150 136 114 91 78 64 53 44 35 30 26 23 21 19 16 14 11 9 6 4 2 -0 359 358 357 355 353 348
194 195 197 201 200 198 197 192 189 186 182 182 182 183 189 194 201 204 194 183 186 199 208 213 225 236 236 225 214 209 204 202 204 206 203 199 197 201 206 205 203 203 205 205 203 209 217 207 193 37 30 19 13 9 6 4 4 3 3 4 3 3 2 360 358 356 354 353 352 352 351 351 349 346
187 194 199 202 203 200 197 192 188 185 184 186 187 188 192 196 210 217 206 191 183 192 210 223 223 226 239 231 213 211 212 211 210 209 210 214 211 208 217 224 225 228 230 233 239 253 266 269 284 306 323 332 335 337 339 341 343 345 346 348 347 347 348 348 347 347 347 346 346 346 346 345 345 343
186 191 196 199 201 201 197 191 187 186 187 188 190 192 194 201 225 222 207 197 187 188 204 220 219 218 231 234 216 214 218 216 213 215 219 223 222 218 226 237 243 247 248 248 247 253 267 278 294 309 317 319 317 318 321 322 325 326 327 329 330 330 331 331 334 336 337 339 339 340 341 341 341 340
182 186 189 192 195 195 192 190 188 187 189 188 186 188 193 203 220 213 204 202 199 193 198 210 215 216 220 224 221 218 214 211 216 227 231 238 245 243 237 238 252 261 255 245 240 248 264 276 290 301 305 305 303 303 305 307 309 311 314 317 317 317 318 318 321 324 326 329 331 333 335 336 336 336
176 182 187 189 193 193 188 186 187 188 190 187 184 186 190 196 206 203 198 204 210 206 202 206 215 221 221 223 231 227 214 217 233 243 250 270 279 268 242 230 238 256 244 235 241 260 274 282 288 293 296 295 293 294 296 297 299 303 307 310 310 309 309 310 311 313 317 321 323 326 330 333 334 334
180 186 188 191 193 189 184 184 186 189 192 190 188 194 203 205 210 204 195 199 216 223 217 210 213 223 226 230 240 242 232 229 233 238 249 266 275 273 258 240 232 231 235 244 256 267 275 280 282 286 291 294 292 290 291 291 294 299 301 302 303 303 304 305 306 308 312 316 319 321 325 330 333 333
171 183 189 192 191 187 184 185 184 184 189 191 194 206 215 208 205 198 191 194 213 230 225 212 212 221 225 228 238 245 244 239 237 239 246 255 259 260 264 264 252 240 243 253 261 265 271 275 278 281 285 290 293 292 290 289 290 294 297 302 304 303 302 303 304 306 309 312 315 317 320 325 329 330
144 155 175 189 192 190 188 186 182 181 187 193 202 218 219 204 196 194 194 195 207 221 222 213 216 220 222 229 236 243 248 246 245 246 247 252 258 261 266 273 271 262 261 263 263 263 266 268 272 275 277 284 290 292 292 292 290 289 295 307 311 306 304 304 304 305 306 308 311 313 315 319 324 326
142 141 153 175 183 186 188 187 185 186 192 197 207 222 218 202 197 196 193 186 191 205 212 216 222 222 225 231 232 232 238 240 244 249 251 258 267 271 274 276 273 270 273 274 271 268 266 266 270 273 276 281 287 289 290 293 291 286 293 307 310 305 303 304 303 303 303 304 306 308 309 313 318 321
143 145 146 154 162 172 184 192 190 190 196 199 203 210 196 193 201 199 188 178 179 190 196 204 218 224 230 231 227 227 232 238 244 248 248 256 271 277 274 271 267 269 272 273 274 274 272 271 272 274 276 280 285 286 288 292 293 291 293 301 303 300 299 299 299 300 300 299 302 304 304 307 312 315
146 149 147 145 148 159 180 196 198 199 204 206 206 208 184 179 194 196 190 187 186 193 198 196 205 220 228 225 225 231 238 246 254 252 247 255 270 272 264 259 261 265 267 266 267 271 274 275 273 272 274 279 282 283 287 292 295 295 294 295 296 295 293 293 295 296 296 295 298 300 300 301 306 310
155 154 156 157 161 167 178 195 202 206 212 214 215 221 210 184 185 190 192 195 199 205 209 208 212 223 230 230 233 238 242 246 251 254 257 265 272 271 265 263 265 266 267 268 268 268 270 273 273 271 273 276 278 280 286 291 293 293 293 292 291 290 289 289 291 292 292 293 295 297 296 297 301 305
163 162 169 171 173 180 186 194 201 206 213 220 225 229 229 216 204 202 204 207 211 217 220 221 224 231 238 241 242 245 244 244 247 252 258 264 267 269 271 273 274 272 272 276 277 274 272 271 270 268 270 275 278 280 283 286 287 288 289 289 288 288 286 285 287 288 289 292 294 293 292 294 298 301
171 170 174 176 176 182 192 199 205 207 210 218 223 224 227 228 221 218 218 219 223 229 231 233 237 243 248 249 249 252 253 253 254 257 259 261 263 264 268 272 275 275 275 277 278 277 275 271 269 267 270 273 274 275 277 280 283 283 282 282 284 285 284 282 282 284 287 291 294 293 293 296 299 300
166 170 175 180 179 177 184 192 198 204 210 215 219 221 224 226 225 225 225 226 229 234 238 240 242 247 253 254 255 258 261 263 265 267 267 268 268 269 270 271 272 272 272 273 274 273 272 271 270 271 275 276 274 274 276 279 282 282 279 277 278 280 280 278 278 279 281 286 291 291 292 294 297 299
157 162 168 176 177 173 177 186 191 197 205 212 216 220 223 227 231 233 234 235 237 238 241 245 246 247 251 252 254 258 262 265 268 270 271 272 272 272 272 272 270 269 268 269 270 270 271 272 273 275 278 278 276 276 276 277 279 281 280 278 275 274 276 276 276 275 277 280 285 287 288 291 293 295
159 162 167 174 177 175 177 186 194 200 204 208 213 216 219 224 232 236 238 240 242 243 245 248 250 251 252 254 256 258 260 263 266 269 271 273 274 274 274 272 271 269 268 268 268 269 271 271 272 276 278 276 276 278 277 277 280 279 276 275 272 269 269 270 269 269 270 273 276 279 284 288 292 293
170 173 177 180 182 181 183 187 195 203 208 212 217 221 226 230 233 237 240 241 242 245 248 250 253 256 258 261 264 266 268 270 273 275 277 279 280 279 277 276 276 275 274 273 271 271 272 272 273 276 276 274 275 276 276 280 283 278 271 271 272 268 264 262 260 259 261 264 267 271 279 285 289 288
174 182 187 190 190 191 193 194 199 207 214 222 231 236 241 245 246 247 249 249 249 250 251 254 257 259 261 264 266 268 270 271 273 274 276 279 281 280 280 282 284 283 281 280 277 274 273 275 276 276 274 272 272 274 278 283 282 276 271 271 269 264 258 254 251 250 252 256 260 266 275 282 284 283
177 186 193 200 204 207 211 214 221 227 233 239 245 249 253 257 259 262 264 265 265 264 264 264 263 263 264 265 265 266 267 267 268 270 272 275 279 281 282 284 287 287 285 284 284 281 279 281 281 278 276 276 277 278 280 281 279 275 273 271 267 261 253 247 242 242 244 249 255 263 272 279 280 278
185 193 202 211 219 227 234 241 244 246 250 254 258 263 268 271 274 276 277 277 277 277 276 275 273 272 271 270 270 270 270 270 271 272 275 277 279 281 282 282 285 286 283 284 287 286 283 281 278 276 277 281 283 282 281 279 277 274 271 266 261 255 248 242 237 234 238 243 251 260 269 274 276 275
196 207 217 227 240 251 258 262 262 264 267 271 275 278 280 283 285 286 286 285 285 284 284 282 282 282 281 280 280 279 279 280 278 276 276 276 276 276 276 278 281 280 276 276 281 284 283 281 280 280 281 280 279 281 282 279 274 272 271 265 257 250 245 240 232 228 232 240 249 260 269 271 271 274
215 228 239 247 254 261 268 272 274 277 281 283 285 287 288 290 291 290 290 289 288 289 290 290 291 291 289 288 288 288 289 288 281 276 273 270 269 269 269 272 279 281 279 279 282 285 285 286 287 286 283 280 278 280 279 273 269 268 268 265 261 256 247 238 229 226 232 246 259 266 262 262 266 271
231 243 255 263 266 268 272 277 281 283 285 286 288 291 293 295 296 295 295 295 297 300 302 303 304 300 294 292 293 293 291 288 284 279 276 277 278 278 276 274 275 278 281 283 285 285 284 285 286 285 284 282 277 271 268 267 267 268 267 267 268 260 244 233 228 227 235 251 263 256 243 250 260 261
228 235 245 256 266 273 279 286 292 295 295 291 287 287 290 294 297 300 305 310 316 320 320 321 320 313 306 306 305 303 299 295 293 288 283 282 284 285 287 288 285 282 282 284 288 290 288 286 285 283 282 279 273 268 270 273 274 274 271 266 258 242 227 222 223 228 241 253 249 234 234 248 253 249
216 218 220 226 238 249 234 112 107 108 120 143 180 215 245 271 282 294 306 314 319 321 319 316 311 305 303 304 303 300 298 295 292 288 284 281 279 279 283 287 290 291 292 292 296 298 298 295 291 286 282 279 278 281 286 285 280 276 268 255 240 226 220 221 225 230 238 240 230 225 237 249 246 244
113 109 117 132 148 153 149 151 154 155 163 186 219 254 279 292 300 311 320 321 317 312 307 302 301 300 298 295 291 289 288 289 289 288 287 286 284 284 283 285 288 292 293 295 299 302 302 299 293 286 284 287 292 298 302 296 283 271 257 241 228 221 220 223 225 226 226 224 222 225 233 240 241 245
107 107 113 122 133 145 153 164 173 176 191 236 269 289 297 300 304 306 306 302 297 295 294 292 293 293 292 290 289 288 289 292 293 293 293 293 292 292 290 289 291 292 292 293 298 303 303 298 291 287 290 300 309 311 307 296 279 261 245 230 222 221 224 220 214 216 222 223 222 226 233 240 244 247
109 114 124 132 137 143 149 160 178 194 219 251 271 280 283 286 289 288 282 278 278 281 283 285 287 288 290 292 295 295 296 298 299 299 299 298 297 296 294 293 292 292 291 292 295 301 302 298 295 299 310 319 320 313 298 284 273 261 248 234 225 226 230 223 214 219 228 226 222 228 234 236 239 248
109 112 122 134 145 157 171 199 229 250 268 279 286 288 287 287 289 289 288 287 286 287 289 290 292 294 296 298 300 302 303 303 303 304 303 302 301 299 298 296 293 288 286 289 295 297 295 293 299 311 317 319 314 301 285 272 265 254 239 228 224 223 222 220 220 223 227 225 222 224 227 232 245 256
95 89 88 99 129 242 314 323 330 332 329 327 324 318 313 306 301 300 300 299 297 297 297 297 299 301 303 306 308 310 311 311 311 310 308 306 305 302 299 296 292 284 281 288 294 290 284 289 305 314 312 308 301 291 276 258 250 243 230 220 220 220 217 215 216 216 218 221 223 227 241 254 257 254
92 83 75 68 36 4 357 356 355 348 342 340 336 328 324 321 317 315 315 313 312 312 311 312 312 313 316 318 319 320 319 319 319 319 319 319 318 314 307 299 294 288 284 286 286 282 282 293 305 307 302 297 291 282 265 239 228 227 222 213 213 217 214 209 210 214 219 224 234 254 270 265 248 235
97 76 49 32 15 359 354 353 350 343 340 341 337 332 331 331 329 331 333 333 332 331 331 333 333 333 333 333 331 331 330 329 331 333 336 339 340 336 326 313 305 301 295 288 286 288 291 294 297 295 291 288 279 260 242 224 213 214 218 213 204 204 204 204 209 220 230 241 261 277 274 245 219 215
101 66 350 339 341 334 333 335 334 334 337 337 334 337 342 342 346 352 355 353 352 352 352 352 350 348 346 344 343 343 342 340 343 348 350 352 352 347 340 329 318 309 304 300 301 300 295 289 287 285 280 275 266 251 237 227 218 218 223 220 204 198 203 209 214 224 244 266 279 273 215 194 205 232
193 271 294 308 318 321 329 337 340 347 356 355 348 348 353 357 4 9 7 2 3 5 2 358 354 351 349 346 346 348 349 349 355 -0 0 358 355 349 342 337 331 323 318 316 312 300 287 279 275 266 254 251 252 244 233 228 225 219 216 213 207 205 209 215 227 248 266 269 250 184 171 190 232 242
279 292 302 318 335 342 349 353 355 3 14 19 12 8 12 17 18 17 12 8 10 8 2 357 355 353 352 353 354 356 358 1 5 6 4 359 352 345 341 341 343 343 333 316 296 273 258 255 253 243 235 238 248 244 233 228 220 206 198 199 203 208 216 232 256 270 258 211 179 178 195 219 228 225
285 294 313 352 2 359 -0 3 7 16 28 35 30 25 26 27 25 24 22 19 16 11 7 6 7 8 9 11 11 9 8 8 7 4 358 353 347 341 338 340 345 346 334 285 224 207 212 221 234 260 243 242 253 262 251 229 210 203 203 207 213 223 241 259 259 233 198 182 188 204 211 214 225 242
273 284 337 26 23 12 14 21 28 37 43 43 38 37 39 40 37 35 33 28 24 23 22 22 23 22 21 19 17 15 13 9 5 -0 355 351 348 343 337 335 338 339 329 308 252 243 286 309 330 335 335 347 345 278 255 220 200 202 207 214 225 235 241 229 198 180 175 187 209 218 227 240 248 260
264 320 33 45 55 63 52 46 55 63 60 51 49 52 53 52 46 41 38 36 36 36 35 34 34 32 29 25 22 19 16 13 8 3 357 353 352 352 351 355 10 31 34 27 25 9 340 320 316 314 316 330 332 278 245 218 197 194 192 193 204 204 190 180 180 183 188 201 208 218 247 254 246 252
46 49 55 67 80 84 79 74 72 69 60 53 51 53 51 47 45 46 47 46 43 40 37 37 38 37 33 31 28 23 20 18 15 11 6 1 360 3 5 8 22 38 35 17 1 345 320 304 306 308 296 277 269 258 235 205 175 148 125 123 136 147 152 159 169 174 171 160 146 131 110 101 180 237
60 68 78 84 84 84 82 77 68 63 61 56 51 49 45 41 43 50 53 51 48 43 37 36 38 38 36 35 33 30 26 24 21 19 16 11 7 8 9 6 2 5 6 1 353 349 338 317 305 296 260 210 188 180 173 157 143 128 109 99 105 118 131 137 138 142 144 134 106 85 80 79 74 73
77 82 87 84 79 78 76 68 59 59 63 62 58 53 48 44 46 49 49 45 43 43 41 38 39 40 38 36 35 33 31 30 28 27 25 22 18 15 14 12 7 4 7 13 13 16 26 34 40 56 98 131 146 151 145 139 137 135 124 109 105 113 127 131 129 134 140 134 98 80 85 84 75 65